Regional Weather Roundup
Issued by NWS

Home | Current Version | Previous Version | Graphics & Text | Print | Product List | Glossary On
Versions: 1 2 3 4 5 6 7 8 9 10 11 12 13 14 15 16 17 18 19 20 21 22 23 24 25 26 27 28 29 30 31 32 33 34 35 36 37 38 39 40 41 42 43 44 45 46 47 48 49 50
000
ASUS43 KBIS 202210
RWRND

NORTH DAKOTA REGIONAL WEATHER ROUNDUP
NATIONAL WEATHER SERVICE BISMARCK ND
500 PM CDT THU JUL 20 2017

NOTE: "FAIR" INDICATES FEW OR NO CLOUDS BELOW 12,000 FEET WITH NO
SIGNIFICANT WEATHER AND/OR OBSTRUCTIONS TO VISIBILITY.


NDZ001>003-009>011-017-202300-
NORTHWEST NORTH DAKOTA

CITY           SKY/WX    TMP DP  RH WIND       PRES   REMARKS
WILLISTON      CLOUDY    92  56  29 E16       29.84F HX  90
MINOT          CLOUDY    83  61  47 NE8       29.88F
MINOT AFB      MOSUNNY   87  65  48 NE9       29.88F
$$

NDZ018>021-031>035-040>046-202300-
SOUTHWEST NORTH DAKOTA

CITY           SKY/WX    TMP DP  RH WIND       PRES   REMARKS
BISMARCK       SUNNY     96  54  24 S16       29.88F HX  94
DICKINSON      SUNNY     92  55  28 SE25G31   29.79F HX  90
GARRISON         N/A     89  57  33 SE9       29.87F
HETTINGER ARPT SUNNY     97  57  26 S23G33    29.84F HX  96
$$

NDZ004>008-012>016-024-026-027-054-202300-
NORTHEAST NORTH DAKOTA

CITY           SKY/WX    TMP DP  RH WIND       PRES   REMARKS
GRAND FORKS    MOSUNNY   85  63  47 S8        29.94F
GRND FRKS AFB  SUNNY     83  63  50 S9        29.96F
DEVILS LAKE    MOSUNNY   85  63  47 SE10      29.94F
$$

NDZ022-023-025-028>030-036>039-047>053-202300-
SOUTHEAST NORTH DAKOTA

CITY           SKY/WX    TMP DP  RH WIND       PRES   REMARKS
FARGO          SUNNY     88  65  46 S12       29.94F HX  90
JAMESTOWN      SUNNY     89  65  44 S13       29.94F HX  91
$$





USA.gov is the U.S. government's official web portal to all federal, state and local government web resources and services.